DW6244 Weather Reports


time (UTC)temp
C
wind
direction
speed
KPH
gust
KPH
rain 1hr
cm
rain 24hr
cm
rain mn
cm
humidity
%
barometer
mb
20200229102018 20 338 14.5 32.2 0.00 0.00 0.00 77 1024.7
20200229101018 20 315 16.1 32.2 0.00 0.00 0.00 76 1024.6
20200229100018 20 315 12.9 27.4 0.00 0.00 0.00 74 1024.7
20200229095016 20 315 16.1 33.8 0.00 0.00 0.00 75 1024.8
20200229094018 20 338 12.9 27.4 0.00 0.00 0.00 75 1024.7
20200229093016 21 315 16.1 30.6 0.00 0.00 0.00 75 1024.8
20200229092018 20 315 14.5 27.4 0.00 0.00 0.00 76 1024.8
20200229091018 21 315 14.5 27.4 0.00 0.00 0.00 75 1024.9
20200229090018 21 338 12.9 25.7 0.00 0.00 0.00 74 1024.9
20200229085018 21 338 12.9 27.4 0.00 0.00 0.00 73 1025.0
20200229084019 21 338 14.5 29.0 0.00 0.00 0.00 72 1025.0
20200229083018 21 315 12.9 29.0 0.00 0.00 0.00 73 1025.0
20200229082019 21 0 11.3 24.1 0.00 0.00 0.00 68 1025.0
20200229081018 21 0 14.5 29.0 0.00 0.00 0.00 72 1025.1
20200229080018 21 338 12.9 29.0 0.00 0.00 0.00 71 1025.1
20200229075018 21 338 12.9 29.0 0.00 0.00 0.00 72 1025.2
20200229074018 21 23 12.9 29.0 0.00 0.00 0.00 72 1025.2
20200229073018 21 23 12.9 27.4 0.00 0.00 0.00 74 1025.3
20200229072016 21 338 12.9 32.2 0.00 0.00 0.00 73 1025.3
20200229071018 21 23 12.9 27.4 0.00 0.00 0.00 73 1025.5
20200229070019 21 0 12.9 27.4 0.00 0.00 0.00 74 1025.5
20200229065018 21 338 12.9 32.2 0.00 0.00 0.00 73 1025.7
20200229064018 21 0 11.3 22.5 0.00 0.00 0.00 74 1025.9
20200229063019 21 338 12.9 25.7 0.00 0.00 0.00 74 1025.9
20200229062018 21 338 14.5 25.7 0.00 0.00 0.00 72 1026.0
20200229061018 21 338 14.5 33.8 0.00 0.00 0.00 74 1026.1
20200229060018 21 338 14.5 30.6 0.00 0.00 0.00 75 1026.2
20200229055018 21 338 16.1 35.4 0.00 0.00 0.00 76 1026.2
20200229054016 21 315 14.5 29.0 0.00 0.00 0.00 75 1026.2
20200229053019 21 315 16.1 32.2 0.00 0.00 0.00 75 1026.2
20200229052016 21 338 14.5 33.8 0.00 0.00 0.00 75 1026.2
20200229051019 21 315 16.1 29.0 0.00 0.00 0.00 76 1026.2
20200229050016 21 315 14.5 29.0 0.00 0.00 0.00 76 1026.3
20200229045018 21 338 12.9 30.6 0.00 0.00 0.00 76 1026.3
20200229044019 21 338 12.9 25.7 0.00 0.00 0.00 75 1026.2
20200229043018 21 338 14.5 30.6 0.00 0.00 0.00 76 1026.3
20200229042018 21 338 12.9 25.7 0.00 0.00 0.00 75 1026.3
20200229041018 21 0 12.9 27.4 0.00 0.00 0.00 75 1026.2
20200229040019 21 338 12.9 29.0 0.00 0.00 0.00 76 1026.1
20200229035018 21 338 16.1 27.4 0.00 0.00 0.00 75 1026.1
20200229034019 21 338 12.9 25.7 0.00 0.00 0.00 75 1026.1
20200229033016 21 338 11.3 25.7 0.00 0.00 0.00 75 1026.2
20200229032019 21 0 12.9 27.4 0.00 0.00 0.00 73 1026.2
20200229031018 21 338 11.3 22.5 0.00 0.00 0.00 74 1026.3
20200229030018 21 338 12.9 24.1 0.00 0.00 0.00 73 1026.3
20200229025018 21 0 14.5 30.6 0.00 0.00 0.00 72 1026.3
20200229024018 21 338 14.5 29.0 0.00 0.00 0.00 72 1026.2
20200229023018 21 0 14.5 29.0 0.00 0.00 0.00 70 1026.1
20200229022016 21 338 16.1 29.0 0.00 0.00 0.00 70 1026.1
20200229021018 21 338 16.1 30.6 0.00 0.00 0.00 71 1025.9
20200229020019 21 0 12.9 29.0 0.00 0.00 0.00 69 1025.9
20200229015019 21 0 14.5 30.6 0.00 0.00 0.00 70 1025.9
20200229014020 21 0 14.5 27.4 0.00 0.00 0.00 70 1025.8
20200229013018 21 338 14.5 30.6 0.00 0.00 0.00 71 1025.6
20200229012019 21 0 14.5 29.0 0.00 0.00 0.00 70 1025.5
20200229011018 21 338 14.5 29.0 0.00 0.00 0.00 71 1025.4
20200229010019 21 338 12.9 30.6 0.00 0.00 0.00 71 1025.2
20200229005016 21 338 14.5 29.0 0.00 0.00 0.00 71 1025.1
20200229004019 21 338 16.1 30.6 0.00 0.00 0.00 73 1025.0
20200229003016 21 338 14.5 27.4 0.00 0.00 0.00 72 1024.9
20200229002020 21 338 16.1 27.4 0.00 0.00 0.00 73 1024.8
20200229001018 21 338 16.1 32.2 0.00 0.00 0.00 74 1024.8
20200229000019 21 0 14.5 25.7 0.00 0.00 0.00 76 1024.8
20200228235018 21 338 14.5 32.2 0.00 0.00 0.00 75 1024.8
20200228234017 21 0 16.1 29.0 0.00 0.00 0.00 77 1024.7
20200228233018 21 0 17.7 30.6 0.00 0.00 0.00 79 1024.6
20200228232019 21 338 17.7 40.2 0.00 0.00 0.00 79 1024.7
20200228231020 21 338 22.5 37.0 0.00 0.00 0.00 79 1024.6
20200228230018 21 0 19.3 38.6 0.00 0.00 0.00 80 1024.5
20200228225019 22 338 16.1 38.6 0.00 0.00 0.00 76 1024.4
20200228224020 22 338 17.7 33.8 0.00 0.00 0.00 73 1024.3
20200228223020 23 338 16.1 33.8 0.00 0.00 0.00 70 1024.1
20200228222021 23 23 11.3 27.4 0.00 0.00 0.00 66 1023.9
20200228221018 23 338 8.0 20.9 0.00 0.00 0.00 62 1023.7
20200228220019 23 338 11.3 22.5 0.00 0.00 0.00 63 1023.7
20200228215016 23 0 9.7 19.3 0.00 0.00 0.00 63 1023.6
20200228214019 23 338 11.3 27.4 0.00 0.00 0.00 64 1023.7
20200228213016 23 0 11.3 25.7 0.00 0.00 0.00 65 1023.8
20200228212019 22 0 11.3 25.7 0.00 0.00 0.00 64 1023.8
20200228211021 22 0 12.9 27.4 0.00 0.00 0.00 64 1023.8
20200228210019 22 0 12.9 24.1 0.00 0.00 0.00 66 1023.8
20200228205018 22 0 11.3 22.5 0.00 0.00 0.00 68 1023.7
20200228204018 22 0 12.9 27.4 0.00 0.00 0.00 66 1023.7
20200228203019 22 0 12.9 25.7 0.00 0.00 0.00 69 1023.7
20200228202019 22 0 12.9 27.4 0.00 0.00 0.00 67 1023.7
20200228201020 23 0 11.3 25.7 0.00 0.00 0.00 66 1023.8
20200228200017 23 45 11.3 25.7 0.00 0.00 0.00 67 1023.8
20200228195019 23 45 12.9 25.7 0.00 0.00 0.00 67 1023.9
20200228194021 23 45 14.5 29.0 0.00 0.00 0.00 67 1023.9
20200228193019 23 45 12.9 29.0 0.00 0.00 0.00 68 1023.9
20200228192019 23 23 3.2 19.3 0.00 0.00 0.00 67 1024.1
20200228191018 23 23 6.4 20.9 0.00 0.00 0.00 65 1024.0
20200228190018 24 23 4.8 19.3 0.00 0.00 0.00 62 1024.2
20200228185018 24 338 6.4 17.7 0.00 0.00 0.00 62 1024.2
20200228184020 23 23 4.8 19.3 0.00 0.00 0.00 62 1024.3
20200228183019 23 338 6.4 22.5 0.00 0.00 0.00 64 1024.3
20200228182020 24 338 8.0 22.5 0.00 0.00 0.00 63 1024.5
20200228181019 23 338 6.4 20.9 0.00 0.00 0.00 63 1024.6
20200228180019 24 0 8.0 24.1 0.00 0.00 0.00 61 1024.8
20200228175018 24 0 6.4 19.3 0.00 0.00 0.00 62 1024.9
20200228174019 24 338 4.8 19.3 0.00 0.00 0.00 63 1025.1
20200228173020 24 23 9.7 22.5 0.00 0.00 0.00 62 1025.2
20200228172018 24 23 8.0 17.7 0.00 0.00 0.00 60 1025.4
20200228171019 24 45 9.7 25.7 0.00 0.00 0.00 61 1025.5
20200228170016 23 23 9.7 19.3 0.00 0.00 0.00 62 1025.6
20200228165019 23 23 11.3 25.7 0.00 0.00 0.00 63 1025.7
20200228164019 23 338 11.3 20.9 0.00 0.00 0.00 64 1025.8
20200228163019 23 0 9.7 24.1 0.00 0.00 0.00 64 1025.9
20200228162020 23 0 9.7 24.1 0.00 0.00 0.00 65 1026.0
20200228161018 23 338 12.9 24.1 0.00 0.00 0.00 64 1026.1
20200228160017 23 0 11.3 25.7 0.00 0.00 0.00 67 1026.0
20200228155017 23 338 9.7 20.9 0.00 0.00 0.00 68 1025.9
20200228154017 23 338 11.3 25.7 0.00 0.00 0.00 68 1025.9
20200228153017 23 0 9.7 25.7 0.00 0.00 0.00 68 1025.9
20200228152017 22 23 11.3 27.4 0.00 0.00 0.00 68 1025.9
20200228151016 22 23 11.3 27.4 0.00 0.00 0.00 68 1025.9
20200228150017 22 338 12.9 27.4 0.00 0.00 0.00 69 1025.8
20200228145017 22 338 12.9 27.4 0.00 0.00 0.00 69 1025.6
20200228144018 22 338 14.5 27.4 0.00 0.00 0.00 69 1025.5
20200228143017 22 0 14.5 29.0 0.00 0.00 0.00 70 1025.3
20200228142016 22 338 14.5 29.0 0.00 0.00 0.00 70 1025.3
20200228141017 21 0 12.9 25.7 0.00 0.00 0.00 72 1025.3
20200228140016 21 338 14.5 29.0 0.00 0.00 0.00 70 1025.1
20200228135020 21 0 12.9 27.4 0.00 0.00 0.00 73 1025.0
20200228134017 21 338 12.9 25.7 0.00 0.00 0.00 74 1024.9
20200228133018 21 338 14.5 29.0 0.00 0.00 0.00 74 1024.8
20200228132016 21 338 12.9 30.6 0.00 0.00 0.00 77 1024.7
20200228131017 21 338 14.5 30.6 0.00 0.00 0.00 77 1024.5
20200228130017 21 0 14.5 29.0 0.00 0.00 0.00 77 1024.4
20200228125017 21 0 14.5 29.0 0.00 0.00 0.00 77 1024.3
20200228124019 21 338 16.1 29.0 0.00 0.00 0.00 75 1024.2
20200228123017 21 23 16.1 33.8 0.00 0.00 0.00 74 1024.0
20200228122017 21 0 16.1 30.6 0.00 0.00 0.00 74 1024.0
20200228121017 21 338 14.5 30.6 0.00 0.00 0.00 76 1023.8
20200228120017 21 0 12.9 29.0 0.00 0.00 0.00 75 1023.7
20200228115018 21 0 12.9 25.7 0.00 0.00 0.00 74 1023.7
20200228114018 21 338 12.9 25.7 0.00 0.00 0.00 76 1023.6
20200228113018 21 23 12.9 30.6 0.00 0.00 0.00 76 1023.4
20200228112018 21 0 12.9 30.6 0.00 0.00 0.00 77 1023.4
20200228111018 21 338 12.9 25.7 0.00 0.00 0.00 76 1023.4
20200228110018 21 0 12.9 27.4 0.00 0.00 0.00 75 1023.3
20200228105019 21 23 14.5 30.6 0.00 0.00 0.00 76 1023.2
20200228104018 21 0 14.5 29.0 0.00 0.00 0.00 75 1023.1
20200228103017 21 338 11.3 30.6 0.00 0.00 0.00 77 1023.1